1304553629323,18.8649
1304553689323,18.8617
1304553749323,18.8639
1304553809323,18.8169
1304553869323,18.8742
1304553929323,18.8493
1304553989323,18.8597
1304554049323,18.8408
1304554109323,18.8265
1304554169323,18.8766
1304554229323,18.8698
1304554289323,18.7880
1304554349323,18.8282
1304554409323,18.8344
1304554469323,18.8100
1304554529323,18.8064
1304554589323,18.8128
1304554649323,18.8501
1304554709323,18.7998
1304554769323,18.8629
1304554829323,18.8426
1304554889323,18.9076
1304554949323,18.8363
1304555009323,18.8804
1304555069323,18.8098
1304555129323,18.8047
1304555189323,18.8332
1304555249323,18.8334
1304555309323,18.8224
1304555369323,18.8397
1304555429323,18.8491
1304555489323,18.8605
1304555549323,18.8428
1304555609323,18.8120
1304555669323,18.8085
1304555729323,18.8767
1304555789323,18.8570
1304555849323,18.8195
1304555909323,18.8321
1304555969323,18.8673
1304556029323,18.8727
1304556089323,18.8269
1304556149323,18.8700
1304556209323,18.8508
1304556269323,18.8342
1304556329323,18.8685
1304556389323,18.8610
1304556449323,18.8763
1304556509323,18.8519
1304556569323,18.8983
1304556629323,18.8377
1304556689323,18.8331
1304556749323,18.7907
1304556809323,18.8255
1304556869323,18.8694
1304556929323,18.8806
1304556989323,18.8356
1304557049323,18.8420
1304557109323,18.8230
1304557169323,18.8019
1304557229334,18.8521
1304557289334,18.8259
1304557349334,18.8450
1304557409334,18.8558
1304557469334,18.8423
1304557529334,18.9187
1304557589334,18.8982
1304557649334,18.9103
1304557709334,18.9048
1304557769334,18.8733
1304557829334,18.8939
1304557889334,18.8802
1304557949334,18.8521
1304558009334,18.9160
1304558069334,18.8697
1304558129334,18.9197
1304558189334,18.9376
1304558249334,18.8760
1304558309334,18.8558
1304558369334,18.8386
1304558429334,18.8451
1304558489334,18.8592
1304558549334,18.8673
1304558609334,18.8281
1304558669334,18.8435
1304558729334,18.8743
1304558789334,18.8746
1304558849334,18.8236
1304558909334,18.8458
1304558969334,18.8991
1304559029334,18.8750
1304559089334,18.8563
1304559149334,18.8033
1304559209334,18.9069
1304559269334,18.8213
1304559329334,18.9049
1304559389334,18.8695
1304559449334,18.8622
1304559509334,18.8861
1304559569334,18.8398
1304559629334,18.8488
1304559689334,18.8398
1304559749334,18.9282
1304559809334,18.8910
1304559869334,18.8910
1304559929334,18.8734
1304559989334,18.8268
1304560049334,18.8414
1304560109334,18.8237
1304560169334,18.8527
1304560229334,18.8627
1304560289334,18.8832
1304560349334,18.8721
1304560409334,18.9058
1304560469334,18.8313
1304560529334,18.8376
1304560589334,18.8047
1304560649334,18.8020
1304560709334,18.8356
1304560769334,18.8147
1304560829345,18.8411
1304560889345,18.8703
1304560949345,18.8412
1304561009345,18.8669
1304561069345,18.8318
1304561129345,18.8318
1304561189345,18.8336
1304561249345,18.8304
1304561309345,18.8569
1304561369345,18.8221
1304561429345,18.8226
1304561489345,18.8327
1304561549345,18.8039
1304561609345,18.8407
1304561669345,18.7815
1304561729345,18.8218
1304561789345,18.8229
1304561849345,18.8395
1304561909345,18.8911
1304561969345,18.8849
1304562029345,18.8590
1304562089345,18.8830
1304562149345,18.8938
1304562209345,18.8466
1304562269345,18.8977
1304562329345,18.8734
1304562389345,18.8003
1304562449345,18.8305
1304562509345,18.8595
1304562569345,18.8208
1304562629345,18.8718
1304562689345,18.8987
1304562749345,18.8262
1304562809345,18.9509
1304562869345,18.8707
1304562929345,18.8844
1304562989345,18.8593
1304563049345,18.8940
1304563109345,18.8064
1304563169345,18.8439
1304563229345,18.8789
1304563289345,18.8361
1304563349345,18.8816
1304563409345,18.8794
1304563469345,18.8112
1304563529345,18.8648
1304563589345,18.8375
1304563649345,18.8458
1304563709345,18.8332
1304563769345,18.9168
1304563829345,18.8999
1304563889345,18.8297
1304563949345,18.8538
1304564009345,18.8604
1304564069345,18.8326
1304564129345,18.8109
1304564189345,18.8131
1304564249345,18.8375
1304564309345,18.8046
1304564369345,18.8422
1304564429356,18.8624
1304564489356,18.8381
1304564549356,18.9098
1304564609356,18.8690
1304564669356,18.8423
1304564729356,18.8320
1304564789356,18.8988
1304564849356,18.8321
1304564909356,18.8852
1304564969356,18.8388
1304565029356,18.8242
1304565089356,18.8354
1304565149356,18.8075
1304565209356,18.8322
1304565269356,18.8356
1304565329356,18.8134
1304565389356,18.8573
1304565449356,18.8696
1304565509356,18.8133
1304565569356,18.8439
1304565629356,18.8648
1304565689356,18.8379
1304565749356,18.8387
1304565809356,18.8135
1304565869356,18.8780
1304565929356,18.8884
1304565989356,18.8406
1304566049356,18.8516
1304566109356,18.8191
1304566169356,18.8454
1304566229356,18.8412
1304566289356,18.8380
1304566349356,18.8232
1304566409356,18.8041
1304566469356,18.8084
1304566529356,18.8294
1304566589356,18.8301
1304566649356,18.8511
1304566709356,18.8589
1304566769356,18.7949
1304566829356,18.8367
1304566889356,18.8593
1304566949356,18.8016
1304567009356,18.8315
1304567069356,18.8172
1304567129356,18.8271
1304567189356,18.8102
1304567249356,18.7852
1304567309356,18.8489
1304567369356,18.8147
1304567429356,18.8345
1304567489356,18.8456
1304567549356,18.8490
1304567609356,18.8146
1304567669356,18.8229
1304567729356,18.8512
1304567789356,18.7946
1304567849356,18.8317
1304567909356,18.7738
1304567969356,18.8277
1304568029366,18.8053
1304568089366,18.8312
1304568149366,18.8135
1304568209366,18.8180
1304568269366,18.7948
1304568329366,18.8224
1304568389366,18.8340
1304568449366,18.8401
1304568509366,18.7954
1304568569366,18.8177
1304568629366,18.8744
1304568689366,18.8130
1304568749366,18.8535
1304568809366,18.8782
1304568869366,18.7908
1304568929366,18.8131
1304568989366,18.8195
1304569049366,18.8243
1304569109366,18.8250
1304569169366,18.8326
1304569229366,18.8219
1304569289366,18.8486
1304569349366,18.7781
1304569409366,18.8598
1304569469366,18.8164
1304569529366,18.8050
1304569589366,18.7861
1304569649366,18.8530
1304569709366,18.8321
1304569769366,18.8492
1304569829366,18.8114
1304569889366,18.8501
1304569949366,18.8459
1304570009366,18.7987
1304570069366,18.8214
1304570129366,18.8069
1304570189366,18.8301
1304570249366,18.8053
1304570309366,18.8301
1304570369366,18.8305
1304570429366,18.7971
1304570489366,18.8189
1304570549366,18.8105
1304570609366,18.8160
1304570669366,18.8465
1304570729366,18.8599
1304570789366,18.8107
1304570849366,18.8365
1304570909366,18.8579
1304570969366,18.8491
1304571029366,18.8497
1304571089366,18.8071
1304571149366,18.8156
1304571209366,18.8540
1304571269366,19.0240
1304571329366,18.8652
1304571389366,18.8762
1304571449366,18.9022
1304571509366,18.8848
1304571569366,18.8693
1304571629377,18.8632
1304571689376,18.8903
1304571749376,18.9032
1304571809376,18.9271
1304571869376,18.8674
1304571929376,18.8538
1304571989376,18.8735
1304572049376,18.8702
1304572109377,18.8534
1304572169377,18.8282
1304572229377,18.8349
1304572289377,18.8016
1304572349376,18.8101
1304572409377,18.7857
1304572469377,18.7870
1304572529377,18.7872
1304572589377,18.7740
1304572649377,18.8122
1304572709377,18.7875
1304572769377,18.8590
1304572829377,18.7960
1304572889377,18.8108
1304572949377,18.7719
1304573009376,18.7727
1304573069376,18.7978
1304573129376,18.7906
1304573189376,18.7541
1304573249376,18.7578
1304573309376,18.7753
1304573369376,18.7267
1304573429377,18.7767
1304573489377,18.8264
1304573549377,18.8407
1304573609377,18.7567
1304573669377,18.8195
1304573729376,18.8081
1304573789377,18.7733
1304573849377,18.8276
1304573909377,18.7433
1304573969377,18.8246
1304574029377,18.8232
1304574089377,18.7648
1304574149377,18.7440
1304574209377,18.8161
1304574269377,18.8343
1304574329377,18.7850
1304574389376,18.8232
1304574449376,18.8088
1304574509376,18.7966
1304574569376,18.7830
1304574629376,18.8134
1304574689376,18.7924
1304574749376,18.8265
1304574809377,18.8331
1304574869377,18.7774
1304574929377,18.7725
1304574989377,18.7782
1304575049376,18.7944
1304575109377,18.7717
1304575169377,18.7985
1304575229387,18.7843
1304575289387,18.7102
1304575349387,18.7655
1304575409387,18.7731
1304575469387,18.7928
1304575529387,18.7758
1304575589387,18.7066
1304575649387,18.7569
1304575709387,18.7404
1304575769387,18.7641
1304575829387,18.7376
1304575889387,18.7700
1304575949387,18.7823
1304576009387,18.7765
1304576069387,18.7594
1304576129387,18.7931
1304576189387,18.8269
1304576249387,18.7479
1304576309387,18.8215
1304576369387,18.7910
1304576429387,18.7573
1304576489387,18.7835
1304576549387,18.7796
1304576609387,18.7747
1304576669387,18.7347
1304576729387,18.7540
1304576789387,18.7881
1304576849387,18.7394
1304576909387,18.7631
1304576969387,18.8160
1304577029387,18.7368
1304577089387,18.8247
1304577149387,18.8289
1304577209387,18.7591
1304577269387,18.7979
1304577329387,18.7354
1304577389387,18.7770
1304577449387,18.7836
1304577509387,18.7100
1304577569387,18.8098
1304577629387,18.7897
1304577689387,18.8181
1304577749387,18.7977
1304577809387,18.7820
1304577869387,18.7912
1304577929387,18.7979
1304577989387,18.7904
1304578049387,18.8140
1304578109387,18.8051
1304578169387,18.7550
1304578229387,18.7771
1304578289387,18.8130
1304578349387,18.7992
1304578409387,18.8611
1304578469387,18.8105
1304578529387,18.8075
1304578589387,18.7761
1304578649387,18.8058
1304578709387,18.7720
1304578769387,18.7898
1304578829397,18.7696
1304578889397,18.7927
1304578949397,18.8084
1304579009397,18.7512
1304579069397,18.7987
1304579129397,18.8036
1304579189397,18.7745
1304579249397,18.7945
1304579309397,18.8416
1304579369397,18.8351
1304579429397,18.7549
1304579489397,18.7988
1304580029397,18.8007
1304580089397,18.7784
1304580149397,18.7579
1304580209397,18.7496
1304580269397,18.7555
1304580329397,18.7544
1304580389397,18.7541
1304580449397,18.7488
1304580509397,18.7672
1304580569397,18.7462
1304580629397,18.7779
1304580689397,18.8094
1304580749397,18.7805
1304580809397,18.7779
1304580869397,18.7574
1304580929397,18.8009
1304580989397,18.8134
1304581049397,18.7956
1304581109397,18.7702
1304581169397,18.7629
1304581229397,18.7936
1304581289397,18.7721
1304581349397,18.7734
1304581409397,18.7948
1304581469397,18.7059
1304581529397,18.7495
1304581589397,18.7434
1304581649397,18.7983
1304581709397,18.7844
1304581769397,18.7405
1304581829397,18.7337
1304581889397,18.7725
1304581949397,18.7524
1304582009397,18.8004
1304582069397,18.7857
1304582129397,18.7924
1304582189397,18.7537
1304582249397,18.8147
1304582309397,18.7699
1304582369397,18.7887
1304582429407,18.7620
1304582489407,18.7924
1304582549407,18.7866
1304582609407,18.7544
1304582669407,18.7840
1304582729407,18.7584
1304582789407,18.8017
1304582849407,18.7407
1304582909407,18.7987
1304582969407,18.7425
1304583029407,18.7804
1304583089407,18.8095
1304583149407,18.7348
1304583209407,18.7398
1304583269407,18.8311
1304583329407,18.7627
1304583389407,18.7500
1304583449407,18.8125
1304583509407,18.7891
1304583569407,18.8032
1304583629407,18.8304
1304583689407,18.8526
1304583749407,18.8795
1304583809407,18.7525
1304583869407,18.8285
1304583929407,18.8222
1304583989407,18.7650
1304584049407,18.7938
1304584109407,18.7836
1304584169407,18.7712
1304584229407,18.7826
1304584289407,18.7989
1304584349407,18.8148
1304584409407,18.7975
1304584469407,18.7921
1304584529407,18.8195
1304584589407,18.7460
1304584649407,18.7910
1304584709407,18.8353
1304584769407,18.8281
1304584829407,18.8248
1304584889407,18.8217
1304584949407,18.8062
1304585009407,18.8234
1304585069407,18.8320
1304585129407,18.8382
1304585189407,18.8338
1304585249407,18.8222
1304585309407,18.8360
1304585369407,18.8050
1304585429407,18.8149
1304585489407,18.8517
1304585549407,18.8229
1304585609407,18.7720
1304585669407,18.7828
1304585729407,18.7609
1304585789407,18.7933
1304585849407,18.7610
1304585909407,18.8164
1304585969407,18.8086
1304586029418,18.8072
1304586089418,18.7558
1304586149418,18.7495
1304586209418,18.8034
1304586269418,18.7774
1304586329418,18.8180
1304586389418,18.7752
1304586449418,18.7705
1304586509418,18.8146
1304586569418,18.7698
1304586629418,18.7942
1304586689418,18.7339
1304586749418,18.7421
1304586809418,18.8002
1304586869418,18.8179
1304586929418,18.7344
1304586989418,18.7914
1304587049418,18.7653
1304587109418,18.7765
1304587169418,18.7721
1304587229418,18.7767
1304587289418,18.7737
1304587349418,18.8350
1304587409418,18.7832
1304587469418,18.8780
1304587529418,18.8005
1304587589418,18.8154
1304587649418,18.8475
1304587709418,18.8144
1304587769418,18.8435
1304587829418,18.8301
1304587889418,18.8219
1304587949418,18.7861
1304588009418,18.7699
1304588069418,18.7288
1304588129418,18.8104
1304588189418,18.7456
1304588249418,18.7947
1304588309418,18.7842
1304588369418,18.8023
1304588429418,18.7608
1304588489418,18.7737
1304588549418,18.8178
1304588609418,18.8226
1304588669418,18.7722
1304588729418,18.8203
1304588789418,18.8077
1304588849418,18.8332
1304588909418,18.7955
1304588969418,18.8189
1304589029418,18.7516
1304589089418,18.7548
1304589149418,18.7608
1304589209418,18.8336
1304589269418,18.7808
1304589329418,18.7511
1304589389418,18.7789
1304589449418,18.7728
1304589509418,18.7576
1304589569418,18.8288
1304589629428,18.7833
1304589689428,18.7941
1304589749428,18.7464
1304589809428,18.7791
1304589869428,18.7608
1304589929428,18.7550
1304589989428,18.7805
1304590049428,18.8188
1304590109428,18.8146
1304590169428,18.8195
1304590229428,18.8257
1304590289428,18.8097
1304590349428,18.7809
1304590409428,18.8381
1304590469428,18.8394
1304590529428,18.8378
1304590589428,18.8041
1304590649428,18.8468
1304590709428,18.7736
1304590769428,18.8050
1304590829428,18.7605
1304590889428,18.8040
1304590949428,18.8257
1304591009428,18.8108
1304591069428,18.7900
1304591129428,18.7455
1304591189428,18.7722
1304591249428,18.7630
1304591309428,18.7604
1304591369428,18.7633
1304591429428,18.7370
1304591489428,18.7326
1304591549428,18.7395
1304591609428,18.7632
1304591669428,18.7856
1304591729428,18.7707
1304591789428,18.7824
1304591849428,18.7379
1304591909428,18.7181
1304591969428,18.7084
1304592029428,18.7075
1304592089428,18.6826
1304592149428,18.7731
1304592209428,18.7309
1304592269428,18.7133
1304592329428,18.7159
1304592389428,18.7376
1304592449428,18.7557
1304592509428,18.7870
1304592569428,18.7482
1304592629428,18.7459
1304592689428,18.8024
1304592749428,18.7822
1304592809428,18.7497
1304592869428,18.7544
1304592929428,18.7385
1304592989428,18.7537
1304593049428,18.7691
1304593109428,18.7056
1304593169428,18.7700
1304593229439,18.7023
1304593289439,18.7867
1304593349439,18.7578
1304593409439,18.7668
1304593469439,18.7920
1304593529439,18.7515
1304593589439,18.7637
1304593649439,18.7152
1304593709439,18.7099
1304593769439,18.7298
1304593829439,18.7888
1304593889439,18.7224
1304593949439,18.8156
1304594009439,18.7539
1304594069439,18.7510
1304594129439,18.7280
1304594189439,18.7436
1304594249439,18.7889
1304594309439,18.7323
1304594369439,18.7629
1304594429439,18.7740
1304594489439,18.7469
1304594549439,18.7814
1304594609439,18.7242
1304594669439,18.7770
1304594729439,18.7500
1304594789439,18.7612
1304594849439,18.7535
1304594909439,18.7932
1304594969439,18.7697
1304595029439,18.7209
1304595089439,18.7605
1304595149439,18.7208
1304595209439,18.7508
1304595269439,18.8012
1304595329439,18.7533
1304595389439,18.8159
1304595449439,18.7907
1304595509439,18.7626
1304595569439,18.7768
1304595629439,18.7539
1304595689439,18.7617
1304595749439,18.6811
1304595809439,18.7121
1304595869439,18.7317
1304595929439,18.7173
1304595989439,18.6859
1304596049439,18.6777
1304596109439,18.7289
1304596169439,18.7037
1304596229439,18.6655
1304596289439,18.7470
1304596349439,18.7098
1304596409439,18.7686
1304596469439,18.7150
1304596529439,18.7078
1304596589439,18.7779
1304596649439,18.7501
1304596709439,18.7185
1304596769439,18.7555
1304596829449,18.7369
1304596889449,18.7628
1304596949449,18.7670
1304597009449,18.7102
1304597069449,18.7329
1304597129449,18.7155
1304597189449,18.7462
1304597249449,18.7552
1304597309449,18.7549
1304597369449,18.7803
1304597429449,18.7654
1304597489449,18.8000
1304597549449,18.7732
1304597609449,18.8124
1304597669449,18.7672
1304597729449,18.8636
1304597789449,18.7320
1304597849449,18.7602
1304597909449,18.7753
1304597969449,18.8023
1304598029449,18.7666
1304598089449,18.8142
1304598149449,18.8036
1304598209449,18.7098
1304598269449,18.8233
1304598329449,18.7413
1304598389449,18.7725
1304598449449,18.7616
1304598509449,18.7933
1304598569449,18.7204
1304598629449,18.8025
1304598689449,18.7938
1304598749449,18.7436
1304598809449,18.7561
1304598869449,18.7770
1304598929449,18.8099
1304598989449,18.7973
1304599049449,18.7321
1304599109449,18.7507
1304599169449,18.7385
1304599229449,18.7881
1304599289449,18.7813
1304599349449,18.7672
1304599409449,18.7612
1304599469449,18.7508
1304599529449,18.7502
1304599589449,18.8023
1304599649449,18.7880
1304599709449,18.7672
1304599769449,18.7916
1304599829449,18.7806
1304599889449,18.8072
1304599949449,18.7853
1304600009449,18.7535
1304600069449,18.7577
1304600129449,18.7594
1304600189449,18.7820
1304600249449,18.7334
1304600309449,18.7284
1304600369449,18.7869
1304600429459,18.7703
1304600489459,18.7582
1304600549459,18.7832
1304600609459,18.7418
1304600669459,18.7718
1304600729459,18.8575
1304600789459,18.8326
1304600849459,18.8051
1304600909459,18.7826
1304600969459,18.8405
1304601029459,18.7287
1304601089459,18.7758
1304601149459,18.7888
1304601209459,18.7952
1304601269459,18.7776
1304601329459,18.7569
1304601389459,18.7524
1304601449459,18.8092
1304601509459,18.8230
1304601569459,18.8388
1304601629459,18.8351
1304601689459,18.7743
1304601749459,18.8265
1304601809459,18.8154
1304601869459,18.8099
1304601929459,18.7910
1304601989459,18.8188
1304602049459,18.7840
1304602109459,18.7842
1304602169459,18.7781
1304602229459,18.7632
1304602289459,18.7686
1304602349459,18.8029
1304602409459,18.7947
1304602469459,18.7604
1304602529459,18.8031
1304602589459,18.7601
1304602649459,18.7915
1304602709459,18.8186
1304602769459,18.8232
1304602829459,18.8092
1304602889459,18.7900
1304602949459,18.8291
1304603009459,18.7822
1304603069459,18.7688
1304603129459,18.7574
1304603189459,18.7756
1304603249459,18.7994
1304603309459,18.7597
1304603369459,18.7586
1304603429459,18.7963
1304603489459,18.8143
1304603549459,18.8096
1304603609459,18.7776
1304603669459,18.7986
1304603729459,18.8060
1304603789459,18.7922
1304603849459,18.8419
1304603909459,18.8078
1304603969459,18.8565
1304604029469,18.8085
1304604089469,18.8409
1304604149469,18.8085
1304604209469,18.8667
1304604269469,18.7822
1304604329469,18.8358
1304604389469,18.8617
1304604449469,18.8676
1304604509469,18.7795
1304604569469,18.8458
1304604629469,18.8162
1304604689469,18.8137
1304604749469,18.8288
1304604809469,18.8855
1304604869469,18.8305
1304604929469,18.8817
1304604989469,18.7790
1304605049469,18.7996
1304605109469,18.8312
1304605169469,18.8359
1304605229469,18.8225
1304605289469,18.8195
1304605349469,18.8374
1304605409469,18.8315
1304605469469,18.8274
1304605529469,18.7948
1304605589469,18.7801
1304605649469,18.7979
1304605709469,18.8524
1304605769469,18.7741
1304605829469,18.8196
1304605889469,18.8356
1304605949469,18.8241
1304606009469,18.8200
1304606069469,18.8673
1304606129469,18.8083
1304606189469,18.8176
1304606249469,18.7854
1304606309469,18.8297
1304606369469,18.8279
1304606429469,18.8532
1304606489469,18.8964
1304606549469,18.9171
1304606609469,18.8907
1304606669469,18.8752
1304606729469,18.8991
1304606789469,18.8286
1304606849469,18.8658
1304606909469,18.8716
1304606969469,18.9079
1304607029469,18.9133
1304607089469,18.9522
1304607149469,18.9038
1304607209469,18.9411
1304607269469,18.9551
1304607329469,18.9784
1304607389469,18.9426
1304607449469,18.9471
1304607509469,19.0012
1304607569469,19.0233
1304607629479,18.9722
1304607689479,18.9974
1304607749479,18.9172
1304607809479,18.9252
1304607869479,18.9082
1304607929479,18.9117
1304607989479,18.9280
1304608049479,18.9701
1304608109479,18.9617
1304608169479,18.9415
1304608229479,18.9168
1304608289479,18.9157
1304608349479,18.8906
1304608409479,18.8975
1304608469479,18.8827
1304608529479,18.8769
1304608589479,18.8864
1304608649479,18.8757
1304608709479,18.9012
1304608769479,18.9172
1304608829479,18.8816
1304608889479,18.8761
1304608949479,18.9330
1304609009479,18.9131
1304609069479,18.9088
1304609129479,18.9512
1304609189479,18.9315
1304609249479,18.9371
1304609309479,18.9429
1304609369479,18.9456
1304609429479,18.9379
1304609489479,18.9446
1304609549479,18.9580
1304609609479,18.9439
1304609669479,18.9819
1304609729479,18.9446
1304609789479,18.9387
1304609849479,18.9394
1304609909479,18.9312
1304609969479,18.9130
1304610029479,18.9377
1304610089479,18.8905
1304610149479,18.9546
1304610209479,18.9382
1304610269479,18.9245
1304610329479,18.9108
1304610389479,18.9379
1304610449479,18.8997
1304610509479,18.9291
1304610569479,18.9753
1304610629479,18.9047
1304610689479,18.9338
1304610749479,18.9188
1304610809479,18.9096
1304610869479,18.9589
1304610929479,18.9157
1304610989479,18.8877
1304611049479,18.9523
1304611109479,18.9493
1304611169479,18.8273
1304611229489,18.8917
1304611289489,18.8694
1304611349489,18.9125
1304611409489,18.9340
1304611469489,18.9102
1304611529489,18.9441
1304611589489,18.8787
1304611649489,18.9054
1304611709489,18.8788
1304611769489,18.8947
1304611829489,18.8910
1304611889489,18.9366
1304611949489,18.8931
1304612009489,18.9387
1304612069489,18.9328
1304612129489,18.9377
1304612189489,18.8798
1304612249489,18.9027
1304612309489,18.9472
1304612369489,18.8937
1304612429489,18.8650
1304612489489,18.9123
1304612549489,18.8413
1304612609489,18.9357
1304612669489,18.9035
1304612729489,18.9232
1304612789489,18.8947
1304612849489,18.8706
1304612909489,18.8116
1304612969489,18.8535
1304613029489,18.8826
1304613089489,18.8861
1304613149489,18.8370
1304613209489,18.8701
1304613269489,18.8350
1304613329489,18.7979
1304613389489,18.8792
1304613449489,18.8599
1304613509489,18.8960
1304613569489,18.8698
1304613629489,18.8518
1304613689489,18.9121
1304613749489,18.8636
1304613809489,18.9061
1304613869489,18.9244
1304613929489,18.8989
1304613989489,18.8810
1304614049489,18.9022
1304614109489,18.8941
1304614169489,18.9520
1304614229489,18.9422
1304614289489,18.9454
1304614349489,18.9061
1304614409489,18.9116
1304614469489,18.8783
1304614529489,18.9230
1304614589489,18.9260
1304614649489,18.9008
1304614709489,18.8983
1304614769489,18.9255
1304614829499,18.9082
1304614889499,18.9283
1304614949499,18.8432
1304615009499,18.8868
1304615069499,18.9531
1304615129499,18.9213
1304615189499,18.8828
1304615249499,18.9197
1304615309499,18.9270
1304615369499,18.9633
1304615429499,18.9456
1304615489499,18.9328
1304615549499,18.9682
1304615609499,18.9311
1304615669499,19.0560
1304615729499,18.9853
1304615789499,19.0080
1304615849499,19.0179
1304615909499,18.9679
1304615969499,18.9247
1304616029499,18.9503
1304616089499,18.9249
1304616149499,18.9177
1304616209499,19.0047
1304616269499,18.9242
1304616329499,18.9540
1304616389499,18.9212
1304616449499,18.9247
1304616509499,18.8695
1304616569499,18.8904
1304616629499,18.9142
1304616689499,18.8923
1304616749499,18.9152
1304616809499,18.8998
1304616869499,18.8977
1304616929499,18.8968
1304616989499,18.8893
1304617049499,18.9362
1304617109499,18.8843
1304617169499,18.9288
1304617229499,18.9655
1304617289499,18.9607
1304617349499,18.9128
1304617409499,18.9882
1304617469499,19.0355
1304617529499,19.1522
1304617589499,19.0770
1304617649499,19.1175
1304617709499,19.0975
1304617769499,19.0139
1304617829499,18.9510
1304617889499,18.9428
1304617949499,19.0624
1304618009499,19.0191
1304618069499,19.1920
1304618129499,19.2481
1304618189499,19.1059
1304618249499,19.0814
1304618309499,19.0556
1304618369499,19.0229
1304618429509,19.0766
1304618489509,19.0072
1304618549509,19.0161
1304618609509,18.9576
1304618669509,18.9765
1304618729509,18.9666
1304618789509,18.9716
1304618849509,18.9478
1304618909509,18.9134
1304618969509,18.9463
1304619029509,18.9260
1304619089509,18.9111
1304619149509,18.8880
1304619209509,18.9135
1304619269509,18.9317
1304619329509,18.9115
1304619389509,18.8726
1304619449509,18.8862